Tracking 35274 objects as of 11-Sep-2026
HD Live streaming from Space Station
objects crossing your sky now

STARLINK-31181

Track STARLINK-31181 now!
10-day predictions
STARLINK-31181 is classified as:


NORAD ID: 58746
Int'l Code: 2024-005U
Launch date: January 7, 2024
Source: United States (US)
Launch site: AIR FORCE EASTERN TEST RANGE (AFETR)
Your satellite tracking list
Your tracking list is empty




NASA's NSSDC Master Catalog

Two Line Element Set (TLE):
1 58746U 24005U   26253.93981431 -.00000022  00000-0  87310-5 0  9996
2 58746  43.0046 101.3234 0001149 282.7793  77.2930 15.27574680150612
Source of the keplerian elements: AFSPC